Swansboro, NC

5:52 PM EDT on June 28, 2017 (GMT -0400)
Bogue McAlf

Weather History for KNJM - January, 2013

Change the Weather History Date:

Thursday, January 31, 2013

  Actual Average (KNKT) Record (KNKT)
Temperature  
Mean Temperature 55 °F -  
Max Temperature 66 °F 52 °F 75 °F (2002)
Min Temperature 44 °F 34 °F 25 °F (2004)
Degree Days  
Heating Degree Days 10    
Growing Degree Days 5 (Base 50)    
Moisture  
Dew Point 41 °F    
Average Humidity 61    
Maximum Humidity 94    
Minimum Humidity 29    
Precipitation  
Precipitation 0.15 in - - ()
Sea Level Pressure  
Sea Level Pressure 29.79 in    
Wind  
Wind Speed 17 mph (WSW)    
Max Wind Speed 26 mph    
Max Gust Speed 47 mph    
Visibility 8 miles    
Events Rain    
Averages and records for this station are not official NWS values.
T = Trace of Precipitation, MM = Missing Value Source: NWS Daily Summary

Daily Weather History Graph

Daily Weather History Graph

Search for Another Location

Airport or City:

Trip Planner

Search our weather history database for the weather conditions in past years. The results will help you decide how hot, cold, wet, or windy it might be!

Date:

Astronomy

Jan. 31, 2013 Rise Set
Actual Time 7:06 AM EST 5:36 PM EST
Civil Twilight 6:40 AM EST 6:03 PM EST
Nautical Twilight 6:10 AM EST 6:33 PM EST
Astronomical Twilight 5:40 AM EST 7:03 PM EST
Moon 10:21 PM EST (1/31) 9:19 AM EST (1/31)
Length of Visible Light 11h 22m
Length of Day
10h 29m
Waning Gibbous, 80% of the Moon is Illuminated
Jan 31
Waning Gibbous
Feb 3
Last Quarter
Feb 10
New
Feb 17
First Quarter
Feb 25
Full

Hourly Weather History & Observations

Time (EST) Temp. Windchill Dew Point Humidity Pressure Visibility Wind Dir Wind Speed Gust Speed Precip Events Conditions
12:34 AM 66.2 °F - 60.8 °F 83% 29.62 in 6.0 mi South 23.0 mph 34.5 mph N/A   Haze
12:57 AM 66.0 °F - 61.0 °F 84% 29.61 in 6.0 mi South 26.5 mph 35.7 mph N/A   Haze
1:57 AM 66.0 °F - 61.0 °F 84% 29.57 in 6.0 mi SSW 24.2 mph 35.7 mph N/A   Haze
2:13 AM 66.2 °F - 60.8 °F 83% 29.55 in 6.0 mi South 26.5 mph 35.7 mph N/A   Haze
2:45 AM 64.4 °F - 62.6 °F 94% 29.58 in 1.5 mi SW 25.3 mph 39.1 mph 0.10 in Rain Heavy Rain
2:51 AM 64.4 °F - 60.8 °F 88% 29.59 in 1.5 mi WSW 20.7 mph 47.2 mph 0.10 in Rain Light Rain
2:57 AM 63.0 °F - 59.0 °F 87% 29.61 in 3.0 mi West 16.1 mph 34.5 mph 0.11 in Rain Rain
3:04 AM 60.8 °F - 57.2 °F 88% 29.60 in 3.0 mi West 15.0 mph 35.7 mph 0.02 in Rain Rain
3:06 AM 60.8 °F - 57.2 °F 88% 29.60 in 3.0 mi West 11.5 mph 35.7 mph 0.02 in Rain Rain
3:21 AM 59.0 °F - 55.4 °F 88% 29.60 in 5.0 mi West 12.7 mph 27.6 mph 0.03 in Rain Light Rain
3:57 AM 59.0 °F - 54.0 °F 83% 29.62 in 9.0 mi WSW 16.1 mph 32.2 mph 0.04 in Rain Light Rain
4:57 AM 55.9 °F - 50.0 °F 80% 29.65 in 10.0 mi WSW 13.8 mph 25.3 mph 0.00 in   Overcast
5:57 AM 54.0 °F - 45.0 °F 72% 29.69 in 10.0 mi WSW 12.7 mph 23.0 mph 0.00 in   Mostly Cloudy
6:57 AM 53.1 °F - 44.1 °F 71% 29.74 in 10.0 mi West 11.5 mph 26.5 mph N/A   Mostly Cloudy
7:57 AM 52.0 °F - 43.0 °F 71% 29.78 in 10.0 mi West 17.3 mph 25.3 mph N/A   Scattered Clouds
8:57 AM 51.1 °F - 35.1 °F 54% 29.82 in 10.0 mi West 17.3 mph 28.8 mph N/A   Partly Cloudy
9:57 AM 53.1 °F - 35.1 °F 50% 29.85 in 10.0 mi West 15.0 mph 24.2 mph N/A   Partly Cloudy
10:57 AM 52.0 °F - 32.0 °F 47% 29.87 in 10.0 mi West 16.1 mph 28.8 mph N/A   Scattered Clouds
11:57 AM 54.0 °F - 30.9 °F 41% 29.88 in 10.0 mi WNW 11.5 mph 29.9 mph N/A   Scattered Clouds
12:57 PM 55.0 °F - 28.9 °F 37% 29.86 in 10.0 mi WNW 13.8 mph 25.3 mph N/A   Partly Cloudy
1:57 PM 55.0 °F - 28.9 °F 37% 29.86 in 10.0 mi West 12.7 mph 18.4 mph N/A   Partly Cloudy
2:57 PM 55.9 °F - 25.0 °F 30% 29.87 in 10.0 mi West 9.2 mph 18.4 mph N/A   Clear
3:57 PM 55.0 °F - 23.0 °F 29% 29.90 in 10.0 mi West 11.5 mph 21.9 mph N/A   Clear
4:57 PM 53.1 °F - 23.0 °F 31% 29.93 in 10.0 mi West 8.1 mph 19.6 mph N/A   Clear
5:57 PM 51.1 °F - 21.9 °F 32% 29.97 in 10.0 mi West 10.4 mph 17.3 mph N/A   Clear
6:57 PM 50.0 °F - 23.0 °F 35% 30.01 in 10.0 mi West 8.1 mph - N/A   Clear
7:57 PM 48.9 °F - 23.0 °F 36% 30.04 in 10.0 mi West 6.9 mph - N/A   Clear
8:57 PM 46.9 °F - 24.1 °F 41% 30.04 in 10.0 mi West 5.8 mph - N/A   Clear
9:57 PM 46.0 °F 44.8 °F 24.1 °F 42% 30.07 in 10.0 mi West 3.5 mph - N/A   Clear
10:57 PM 44.1 °F 42.5 °F 25.0 °F 47% 30.09 in 10.0 mi West 3.5 mph - N/A   Clear
11:57 PM 44.1 °F 40.1 °F 25.0 °F 47% 30.09 in 10.0 mi West 6.9 mph - N/A   Clear